User: anonymous   Login
Location: Columbia
(38.9520°N, 92.3340°W)
Time: 15:50:46
(UTC-05:00)
Language:

Cosmos 1633 - Orbit

View from above orbital plane
View from above orbital plane
View from above satellite
View from above satellite

Ground track
Ground track

The orbit data is extracted from the following two-line orbital elements,

1 15592U 85020A   17177.28795288 +.00001337 +00000-0 +46775-4 0  9996
2 15592 082.5385 310.1894 0014692 140.2696 219.9623 15.28510635765401
Epoch (UTC): 26 June 2017 06:54:39
Eccentricity: 0.0014692
inclination: 82.5385°
perigee height: 470 km
apogee height: 490 km
right ascension of ascending node: 310.1894°
argument of perigee: 140.2696°
revolutions per day: 15.28510635
mean anomaly at epoch: 219.9623°
orbit number at epoch: 76540

The dashed part of the orbit path shows where the satellite is in the earth's shadow,  

DLR